Change the Weather History Date:

Thursday, January 10, 2013

  Actual Average Record
Temperature  
Mean Temperature 49 °F -  
Max Temperature 54 °F 37 °F 63 °F (1960)
Min Temperature 44 °F 18 °F -10 °F (1982)
Degree Days  
Heating Degree Days 16    
Moisture  
Dew Point 48 °F    
Average Humidity 91    
Maximum Humidity 100    
Minimum Humidity 50    
Precipitation  
Precipitation 0.28 in - - ()
Sea Level Pressure  
Sea Level Pressure 29.90 in    
Wind  
Wind Speed 5 mph (SSE)    
Max Wind Speed 10 mph    
Max Gust Speed -    
Visibility 5 miles    
Events Fog , Rain    
Averages and records for this station are not official NWS values.
T = Trace of Precipitation, MM = Missing Value Source: NWS Daily Summary

Daily Weather History Graph

Daily Weather History Graph

Search for Another Location

Airport or City:

Trip Planner

Search our weather history database for the weather conditions in past years. The results will help you decide how hot, cold, wet, or windy it might be!

Date:

Astronomy

Jan. 10, 2013 Rise Set
Actual Time 7:36 AM CST 5:23 PM CST
Civil Twilight 7:07 AM CST 5:52 PM CST
Nautical Twilight 6:35 AM CST 6:24 PM CST
Astronomical Twilight 6:03 AM CST 6:55 PM CST
Moon 6:17 AM CST (1/10) 4:32 PM CST (1/10)
Length of Visible Light 10h 44m
Length of Day
9h 47m
Waning Crescent, 2% of the Moon is Illuminated
Jan 10
Waning Crescent
Jan 11
New
Jan 18
First Quarter
Jan 26
Full
Feb 3
Last Quarter

Hourly Weather History & Observations

Time (CST) Temp. Windchill Dew Point Humidity Pressure Visibility Wind Dir Wind Speed Gust Speed Precip Events Conditions
12:52 AM 51.1 °F - 33.1 °F 50% 30.22 in 10.0 mi East 8.1 mph - N/A   Overcast
1:52 AM 48.9 °F - 37.0 °F 64% 30.20 in 10.0 mi East 8.1 mph - 0.00 in Rain Light Rain
2:52 AM 46.9 °F - 37.9 °F 71% 30.17 in 10.0 mi East 6.9 mph - 0.00 in Rain Light Rain
3:52 AM 46.0 °F 42.5 °F 39.0 °F 76% 30.15 in 10.0 mi Variable 6.9 mph - 0.00 in   Overcast
4:22 AM 46.4 °F 42.4 °F 39.2 °F 76% 30.11 in 10.0 mi ENE 8.1 mph - N/A   Overcast
4:52 AM 46.0 °F 42.5 °F 39.0 °F 76% 30.09 in 10.0 mi East 6.9 mph - N/A   Overcast
5:13 AM 46.4 °F 42.9 °F 39.2 °F 76% 30.09 in 10.0 mi East 6.9 mph - N/A   Overcast
6:43 AM 44.6 °F 39.2 °F 42.8 °F 93% 30.05 in 10.0 mi East 10.4 mph - 0.00 in   Overcast
6:52 AM 45.0 °F 40.6 °F 41.0 °F 86% 30.05 in 10.0 mi East 8.1 mph - 0.00 in   Overcast
7:04 AM 44.6 °F 40.7 °F 42.8 °F 93% 30.05 in 10.0 mi Variable 6.9 mph - N/A   Overcast
8:52 AM 45.0 °F 41.8 °F 42.1 °F 90% 30.02 in 4.0 mi Variable 5.8 mph - 0.00 in Rain Light Rain
8:58 AM 44.6 °F 40.7 °F 42.8 °F 93% 30.02 in 1.5 mi Variable 6.9 mph - 0.04 in Rain Heavy Rain
9:00 AM 44.6 °F 40.7 °F 42.8 °F 93% 30.02 in 1.0 mi Variable 6.9 mph - 0.08 in Rain Heavy Rain
9:11 AM 44.6 °F 41.4 °F 42.8 °F 93% 30.01 in 1.5 mi Variable 5.8 mph - 0.10 in Rain Light Rain
9:16 AM 44.6 °F 40.7 °F 42.8 °F 93% 30.01 in 3.0 mi Variable 6.9 mph - 0.10 in Rain Light Rain
9:52 AM 46.9 °F - 44.1 °F 90% 29.99 in 8.0 mi Variable 4.6 mph - 0.10 in   Overcast
10:52 AM 48.9 °F - 46.0 °F 90% 29.96 in 3.0 mi ESE 3.5 mph - N/A   Overcast
11:01 AM 48.2 °F - 46.4 °F 93% 29.96 in 2.5 mi ESE 5.8 mph - N/A   Overcast
11:09 AM 48.2 °F - 46.4 °F 93% 29.95 in 5.0 mi ESE 3.5 mph - N/A   Overcast
12:44 PM 51.8 °F - 48.2 °F 88% 29.87 in 2.0 mi Calm Calm - 0.00 in Rain Light Rain
12:52 PM 51.1 °F - 48.9 °F 92% 29.87 in 1.8 mi Calm Calm - 0.00 in Rain Light Rain
1:04 PM 51.8 °F - 50.0 °F 94% 29.86 in 2.5 mi Calm Calm - 0.00 in Rain Light Rain
1:13 PM 51.8 °F - 50.0 °F 94% 29.86 in 3.0 mi Calm Calm - 0.00 in Rain Light Rain
1:31 PM 51.8 °F - 50.0 °F 94% 29.86 in 1.8 mi Calm Calm - 0.01 in Rain Rain
1:38 PM 51.8 °F - 50.0 °F 94% 29.86 in 1.8 mi Calm Calm - 0.02 in Rain Light Rain
1:48 PM 51.8 °F - 51.8 °F 100% 29.85 in 2.0 mi SE 3.5 mph - 0.03 in Rain Light Rain
1:59 PM 53.6 °F - 51.8 °F 94% 29.83 in 3.0 mi Calm Calm - 0.00 in Rain Light Rain
2:08 PM 53.6 °F - 51.8 °F 94% 29.82 in 3.0 mi Calm Calm - 0.01 in Rain Light Rain
2:20 PM 53.6 °F - 51.8 °F 94% 29.83 in 5.0 mi Calm Calm - 0.01 in Rain Light Rain
2:52 PM 53.1 °F - 52.0 °F 96% 29.84 in 3.0 mi Calm Calm - 0.03 in Rain Light Rain
3:05 PM 53.6 °F - 53.6 °F 100% 29.82 in 2.0 mi Calm Calm - 0.03 in Rain Rain
3:12 PM 53.6 °F - 53.6 °F 100% 29.83 in 3.0 mi South 3.5 mph - 0.03 in Rain Light Rain
3:22 PM 53.6 °F - 53.6 °F 100% 29.84 in 8.0 mi South 4.6 mph - 0.03 in   Overcast
3:30 PM 53.6 °F - 51.8 °F 94% 29.83 in 2.5 mi SW 3.5 mph - 0.05 in Rain Light Rain
3:32 PM 53.6 °F - 51.8 °F 94% 29.82 in 1.8 mi Calm Calm - 0.06 in Rain Heavy Rain
3:45 PM 53.6 °F - 51.8 °F 94% 29.83 in 2.5 mi South 3.5 mph - 0.09 in Rain Rain
3:52 PM 54.0 °F - 52.0 °F 93% 29.84 in 3.0 mi SSE 4.6 mph - 0.10 in Rain Light Rain
3:58 PM 53.6 °F - 51.8 °F 94% 29.83 in 2.5 mi Calm Calm - 0.02 in Rain Rain
4:12 PM 53.6 °F - 51.8 °F 94% 29.83 in 3.0 mi ESE 3.5 mph - 0.03 in Rain Light Rain
4:52 PM 53.1 °F - 52.0 °F 96% 29.84 in 10.0 mi Calm Calm - 0.05 in   Overcast
5:06 PM 53.6 °F - 51.8 °F 94% 29.84 in 10.0 mi South 3.5 mph - N/A   Overcast
5:40 PM 53.6 °F - 51.8 °F 94% 29.80 in 9.0 mi Calm Calm - N/A   Mostly Cloudy
5:52 PM 52.0 °F - 51.1 °F 97% 29.81 in 7.0 mi South 4.6 mph - N/A   Mostly Cloudy
6:03 PM 51.8 °F - 51.8 °F 100% 29.82 in 8.0 mi South 4.6 mph - N/A   Mostly Cloudy
6:12 PM 51.8 °F - 51.8 °F 100% 29.82 in 8.0 mi South 5.8 mph - N/A   Overcast
6:36 PM 51.8 °F - 51.8 °F 100% 29.81 in 9.0 mi South 3.5 mph - N/A   Mostly Cloudy
6:52 PM 52.0 °F - 51.1 °F 97% 29.82 in 9.0 mi SSE 3.5 mph - N/A   Mostly Cloudy
7:22 PM 51.8 °F - 50.0 °F 94% 29.82 in 5.0 mi Calm Calm - N/A   Overcast
7:52 PM 52.0 °F - 51.1 °F 97% 29.81 in 4.0 mi South 3.5 mph - N/A   Overcast
8:14 PM 51.8 °F - 50.0 °F 94% 29.81 in 1.8 mi South 4.6 mph - N/A   Mostly Cloudy
8:19 PM 51.8 °F - 50.0 °F 94% 29.80 in 1.0 mi South 4.6 mph - N/A   Mist
8:27 PM 51.8 °F - 50.0 °F 94% 29.81 in 0.5 mi South 5.8 mph - N/A Fog Fog
8:52 PM 51.1 °F - 48.9 °F 92% 29.81 in 0.5 mi South 4.6 mph - N/A Fog Fog
9:00 PM 50.0 °F - 48.2 °F 94% 29.81 in 1.2 mi South 3.5 mph - N/A   Overcast
9:03 PM 50.0 °F - 48.2 °F 94% 29.81 in 2.0 mi South 3.5 mph - N/A   Overcast
9:12 PM 50.0 °F - 48.2 °F 94% 29.81 in 5.0 mi South 5.8 mph - N/A   Overcast
9:28 PM 51.8 °F - 48.2 °F 88% 29.81 in 5.0 mi South 5.8 mph - N/A   Overcast
9:38 PM 51.8 °F - 48.2 °F 88% 29.81 in 6.0 mi South 9.2 mph - N/A   Overcast
9:52 PM 50.0 °F - 48.9 °F 96% 29.81 in 7.0 mi South 4.6 mph - N/A   Overcast
10:08 PM 50.0 °F - 48.2 °F 94% 29.80 in 8.0 mi South 8.1 mph - N/A   Overcast
10:52 PM 50.0 °F - 48.0 °F 93% 29.80 in 7.0 mi South 6.9 mph - N/A   Overcast
11:52 PM 50.0 °F - 48.0 °F 93% 29.81 in 9.0 mi South 10.4 mph - N/A   Overcast